Time,TemperatureF,DewpointF,PressureIn,WindDirection,WindDirectionDegrees,WindSpeedMPH,WindSpeedGustMPH,Humidity,HourlyPrecipIn,Conditions,Clouds,dailyrainin,SoftwareType,DateUTC
2013-05-04 00:01:00,43.0,41.4,29.90,SSE,166,10.0,11.0,94,0.07,,,0.00,Wunderground v.1.15,2013-05-04 05:01:00,
2013-05-04 00:07:00,42.9,41.3,29.90,South,189,11.0,11.0,94,0.06,,,0.00,Wunderground v.1.15,2013-05-04 05:07:00,
2013-05-04 00:13:00,42.9,41.3,29.90,South,183,11.0,11.0,94,0.04,,,0.00,Wunderground v.1.15,2013-05-04 05:13:00,
2013-05-04 00:19:00,42.8,41.2,29.90,SSE,151,10.0,11.0,94,0.00,,,0.00,Wunderground v.1.15,2013-05-04 05:19:00,
2013-05-04 00:25:00,42.8,41.2,29.91,SSE,166,11.0,13.0,94,0.00,,,0.00,Wunderground v.1.15,2013-05-04 05:25:00,
2013-05-04 00:31:00,42.9,41.3,29.91,SSE,148,10.0,11.0,94,0.00,,,0.01,Wunderground v.1.15,2013-05-04 05:31:00,
2013-05-04 00:37:00,42.9,41.3,29.90,West,279,7.0,12.0,94,0.00,,,0.01,Wunderground v.1.15,2013-05-04 05:37:00,
2013-05-04 00:42:00,42.8,41.2,29.90,West,279,9.0,11.0,94,0.00,,,0.01,Wunderground v.1.15,2013-05-04 05:42:00,
2013-05-04 00:48:00,42.9,41.3,29.91,SSE,161,11.0,13.0,94,0.04,,,0.02,Wunderground v.1.15,2013-05-04 05:48:00,
2013-05-04 00:54:00,42.8,41.2,29.91,West,279,11.0,12.0,94,0.04,,,0.02,Wunderground v.1.15,2013-05-04 05:54:00,
2013-05-04 01:00:00,42.8,41.2,29.91,SSE,157,10.0,10.0,94,0.00,,,0.02,Wunderground v.1.15,2013-05-04 06:00:00,
2013-05-04 01:05:00,42.7,41.1,29.91,West,279,9.0,13.0,94,0.00,,,0.02,Wunderground v.1.15,2013-05-04 06:05:00,
2013-05-04 01:11:00,42.7,41.1,29.91,South,177,6.0,11.0,94,0.00,,,0.02,Wunderground v.1.15,2013-05-04 06:11:00,
2013-05-04 01:17:00,42.6,41.0,29.90,South,190,6.0,12.0,94,0.00,,,0.02,Wunderground v.1.15,2013-05-04 06:17:00,
2013-05-04 01:23:00,42.7,41.1,29.90,SSE,168,7.0,9.0,94,0.00,,,0.03,Wunderground v.1.15,2013-05-04 06:23:00,
2013-05-04 01:29:00,42.7,41.1,29.90,South,182,6.0,9.0,94,0.00,,,0.03,Wunderground v.1.15,2013-05-04 06:29:00,
2013-05-04 01:35:00,42.7,41.4,29.89,SSW,196,7.0,9.0,95,0.00,,,0.03,Wunderground v.1.15,2013-05-04 06:35:00,
2013-05-04 01:41:00,42.7,41.4,29.89,SSW,198,6.0,6.0,95,0.00,,,0.03,Wunderground v.1.15,2013-05-04 06:41:00,
2013-05-04 01:46:00,42.7,41.4,29.88,SSW,209,5.0,6.0,95,0.00,,,0.03,Wunderground v.1.15,2013-05-04 06:46:00,
2013-05-04 01:52:00,42.7,41.4,29.87,SW,221,7.0,7.0,95,0.00,,,0.03,Wunderground v.1.15,2013-05-04 06:52:00,
2013-05-04 01:58:00,42.6,41.0,29.89,South,173,5.0,7.0,94,0.00,,,0.03,Wunderground v.1.15,2013-05-04 06:58:00,
2013-05-04 02:03:00,42.5,40.9,29.89,South,169,9.0,10.0,94,0.00,,,0.03,Wunderground v.1.15,2013-05-04 07:03:00,
2013-05-04 02:08:00,42.5,40.9,29.86,SSW,204,6.0,10.0,94,0.00,,,0.03,Wunderground v.1.15,2013-05-04 07:08:00,
2013-05-04 02:13:00,42.5,40.9,29.86,West,279,6.0,9.0,94,0.00,,,0.04,Wunderground v.1.15,2013-05-04 07:13:00,
2013-05-04 02:18:00,42.5,40.9,29.88,SSE,164,2.0,9.0,94,0.00,,,0.04,Wunderground v.1.15,2013-05-04 07:18:00,
2013-05-04 02:23:00,42.5,41.2,29.88,SSW,194,4.0,5.0,95,0.05,,,0.05,Wunderground v.1.15,2013-05-04 07:23:00,
2013-05-04 02:28:00,42.5,41.2,29.88,SSW,194,2.0,5.0,95,0.09,,,0.06,Wunderground v.1.15,2013-05-04 07:28:00,
2013-05-04 02:33:00,42.5,41.2,29.88,South,175,4.0,6.0,95,0.09,,,0.06,Wunderground v.1.15,2013-05-04 07:33:00,
2013-05-04 02:38:00,42.5,41.2,29.89,South,173,5.0,6.0,95,0.07,,,0.07,Wunderground v.1.15,2013-05-04 07:38:00,
2013-05-04 02:43:00,42.5,41.2,29.87,South,182,2.0,5.0,95,0.07,,,0.07,Wunderground v.1.15,2013-05-04 07:43:00,
2013-05-04 02:48:00,42.5,41.2,29.87,South,183,4.0,5.0,95,0.05,,,0.07,Wunderground v.1.15,2013-05-04 07:48:00,
2013-05-04 02:53:00,42.5,41.2,29.87,South,176,3.0,4.0,95,0.04,,,0.08,Wunderground v.1.15,2013-05-04 07:53:00,
2013-05-04 02:58:00,42.5,41.2,29.86,SSE,157,5.0,5.0,95,0.04,,,0.08,Wunderground v.1.15,2013-05-04 07:58:00,
2013-05-04 03:03:00,42.6,41.3,29.86,SSE,151,5.0,6.0,95,0.05,,,0.09,Wunderground v.1.15,2013-05-04 08:03:00,
2013-05-04 03:08:00,42.5,41.2,29.86,West,279,5.0,9.0,95,0.09,,,0.10,Wunderground v.1.15,2013-05-04 08:08:00,
2013-05-04 03:13:00,42.6,41.3,29.86,SSE,147,3.0,6.0,95,0.09,,,0.10,Wunderground v.1.15,2013-05-04 08:13:00,
2013-05-04 03:18:00,42.6,41.3,29.86,SSE,167,5.0,7.0,95,0.08,,,0.11,Wunderground v.1.15,2013-05-04 08:18:00,
2013-05-04 03:23:00,42.7,41.4,29.86,South,175,4.0,7.0,95,0.08,,,0.11,Wunderground v.1.15,2013-05-04 08:23:00,
2013-05-04 03:28:00,42.7,41.4,29.86,South,171,6.0,7.0,95,0.08,,,0.12,Wunderground v.1.15,2013-05-04 08:28:00,
2013-05-04 03:33:00,42.7,41.4,29.88,West,279,5.0,11.0,95,0.08,,,0.13,Wunderground v.1.15,2013-05-04 08:33:00,
2013-05-04 03:38:00,42.6,41.3,29.88,SE,132,8.0,11.0,95,0.09,,,0.14,Wunderground v.1.15,2013-05-04 08:38:00,
2013-05-04 03:43:00,42.6,41.3,29.87,SSE,155,6.0,8.0,95,0.16,,,0.15,Wunderground v.1.15,2013-05-04 08:43:00,
2013-05-04 03:48:00,42.5,41.2,29.87,SE,142,7.0,8.0,95,0.09,,,0.15,Wunderground v.1.15,2013-05-04 08:48:00,
2013-05-04 03:53:00,42.5,41.2,29.87,SE,141,7.0,10.0,95,0.07,,,0.16,Wunderground v.1.15,2013-05-04 08:53:00,
2013-05-04 03:58:00,42.5,41.2,29.87,SE,140,5.0,10.0,95,0.11,,,0.17,Wunderground v.1.15,2013-05-04 08:58:00,
2013-05-04 04:03:00,42.4,41.1,29.87,SE,141,9.0,10.0,95,0.12,,,0.18,Wunderground v.1.15,2013-05-04 09:03:00,
2013-05-04 04:08:00,42.4,41.1,29.88,West,279,9.0,12.0,95,0.08,,,0.19,Wunderground v.1.15,2013-05-04 09:08:00,
2013-05-04 04:13:00,42.4,41.1,29.88,SE,143,9.0,11.0,95,0.08,,,0.19,Wunderground v.1.15,2013-05-04 09:13:00,
2013-05-04 04:18:00,42.4,41.1,29.87,SE,138,9.0,11.0,95,0.07,,,0.20,Wunderground v.1.15,2013-05-04 09:18:00,
2013-05-04 04:23:00,42.4,41.1,29.87,SSE,155,7.0,11.0,95,0.07,,,0.20,Wunderground v.1.15,2013-05-04 09:23:00,
2013-05-04 04:28:00,42.4,41.1,29.87,SE,146,9.0,11.0,95,0.08,,,0.21,Wunderground v.1.15,2013-05-04 09:28:00,
2013-05-04 04:33:00,42.4,41.1,29.87,SE,142,6.0,10.0,95,0.08,,,0.22,Wunderground v.1.15,2013-05-04 09:33:00,
2013-05-04 04:38:00,42.4,41.1,29.88,SE,137,5.0,10.0,95,0.08,,,0.22,Wunderground v.1.15,2013-05-04 09:38:00,
2013-05-04 04:43:00,42.4,41.1,29.88,SSE,149,7.0,10.0,95,0.05,,,0.22,Wunderground v.1.15,2013-05-04 09:43:00,
2013-05-04 04:48:00,42.4,41.1,29.88,SE,146,9.0,11.0,95,0.00,,,0.22,Wunderground v.1.15,2013-05-04 09:48:00,
2013-05-04 04:53:00,42.4,41.1,29.88,SSE,157,10.0,11.0,95,0.00,,,0.23,Wunderground v.1.15,2013-05-04 09:53:00,
2013-05-04 04:58:00,42.4,41.1,29.88,SE,146,9.0,14.0,95,0.00,,,0.23,Wunderground v.1.15,2013-05-04 09:58:00,
2013-05-04 05:03:00,42.4,41.1,29.87,SE,144,4.0,10.0,95,0.00,,,0.23,Wunderground v.1.15,2013-05-04 10:03:00,
2013-05-04 05:08:00,42.4,41.1,29.87,SSE,160,9.0,10.0,95,0.24,,,0.25,Wunderground v.1.15,2013-05-04 10:08:00,
2013-05-04 05:13:00,42.4,41.1,29.88,West,279,11.0,11.0,95,0.11,,,0.26,Wunderground v.1.15,2013-05-04 10:13:00,
2013-05-04 05:18:00,42.3,41.0,29.87,South,175,11.0,13.0,95,0.09,,,0.27,Wunderground v.1.15,2013-05-04 10:18:00,
2013-05-04 05:24:00,42.2,40.9,29.87,SSW,194,5.0,11.0,95,0.11,,,0.28,Wunderground v.1.15,2013-05-04 10:24:00,
2013-05-04 05:28:00,42.1,40.8,29.87,SSW,205,6.0,11.0,95,0.11,,,0.28,Wunderground v.1.15,2013-05-04 10:28:00,
2013-05-04 05:33:00,42.0,40.7,29.88,SSW,192,9.0,14.0,95,0.06,,,0.28,Wunderground v.1.15,2013-05-04 10:33:00,
2013-05-04 05:38:00,41.7,40.1,29.88,South,174,12.0,15.0,94,0.04,,,0.29,Wunderground v.1.15,2013-05-04 10:38:00,
2013-05-04 05:43:00,41.5,39.9,29.88,South,172,11.0,15.0,94,0.04,,,0.29,Wunderground v.1.15,2013-05-04 10:43:00,
2013-05-04 05:48:00,41.3,39.7,29.89,South,173,11.0,15.0,94,0.04,,,0.29,Wunderground v.1.15,2013-05-04 10:48:00,
2013-05-04 05:53:00,41.3,39.7,29.88,West,279,6.0,13.0,94,0.04,,,0.29,Wunderground v.1.15,2013-05-04 10:53:00,
2013-05-04 05:58:00,41.2,39.6,29.89,SSE,165,10.0,13.0,94,0.00,,,0.29,Wunderground v.1.15,2013-05-04 10:58:00,
2013-05-04 06:03:00,41.2,39.6,29.89,South,169,16.0,16.0,94,0.00,,,0.29,Wunderground v.1.15,2013-05-04 11:03:00,
2013-05-04 06:08:00,41.2,39.6,29.89,South,188,9.0,16.0,94,0.00,,,0.29,Wunderground v.1.15,2013-05-04 11:08:00,
2013-05-04 06:14:00,41.1,39.5,29.89,SSE,155,12.0,16.0,94,0.00,,,0.29,Wunderground v.1.15,2013-05-04 11:14:00,
2013-05-04 06:19:00,41.0,39.4,29.90,West,279,12.0,16.0,94,0.00,,,0.29,Wunderground v.1.15,2013-05-04 11:19:00,
2013-05-04 06:24:00,41.0,39.4,29.91,SSE,157,13.0,17.0,94,0.00,,,0.29,Wunderground v.1.15,2013-05-04 11:24:00,
2013-05-04 06:29:00,41.0,39.4,29.90,South,173,9.0,17.0,94,0.00,,,0.29,Wunderground v.1.15,2013-05-04 11:29:00,
2013-05-04 06:34:00,41.0,39.4,29.90,West,279,7.0,12.0,94,0.00,,,0.29,Wunderground v.1.15,2013-05-04 11:34:00,
2013-05-04 06:38:00,41.0,39.4,29.90,West,279,11.0,13.0,94,0.00,,,0.29,Wunderground v.1.15,2013-05-04 11:38:00,
2013-05-04 06:44:00,40.9,39.3,29.90,South,173,10.0,13.0,94,0.00,,,0.29,Wunderground v.1.15,2013-05-04 11:44:00,
2013-05-04 06:49:00,41.0,39.4,29.90,South,183,8.0,13.0,94,0.00,,,0.29,Wunderground v.1.15,2013-05-04 11:49:00,
2013-05-04 06:54:00,41.0,39.4,29.91,South,176,9.0,12.0,94,0.00,,,0.29,Wunderground v.1.15,2013-05-04 11:54:00,
2013-05-04 06:59:00,41.0,39.4,29.91,South,184,7.0,12.0,94,0.00,,,0.29,Wunderground v.1.15,2013-05-04 11:59:00,
2013-05-04 07:04:00,41.1,39.5,29.91,South,171,10.0,12.0,94,0.00,,,0.29,Wunderground v.1.15,2013-05-04 12:04:00,
2013-05-04 07:09:00,41.1,39.5,29.91,West,279,6.0,12.0,94,0.00,,,0.30,Wunderground v.1.15,2013-05-04 12:09:00,
2013-05-04 07:14:00,41.1,39.5,29.90,SSE,165,10.0,11.0,94,0.00,,,0.30,Wunderground v.1.15,2013-05-04 12:14:00,
2013-05-04 07:20:00,41.1,39.5,29.91,SSE,157,3.0,7.0,94,0.00,,,0.30,Wunderground v.1.15,2013-05-04 12:20:00,
2013-05-04 07:25:00,41.1,39.5,29.91,South,181,3.0,11.0,94,0.00,,,0.30,Wunderground v.1.15,2013-05-04 12:25:00,
2013-05-04 07:30:00,41.2,39.9,29.91,South,188,4.0,7.0,95,0.00,,,0.30,Wunderground v.1.15,2013-05-04 12:30:00,
2013-05-04 07:35:00,41.2,39.9,29.92,South,176,5.0,8.0,95,0.00,,,0.30,Wunderground v.1.15,2013-05-04 12:35:00,
2013-05-04 07:41:00,41.2,39.9,29.92,South,179,8.0,8.0,95,0.00,,,0.30,Wunderground v.1.15,2013-05-04 12:41:00,
2013-05-04 07:46:00,41.3,40.0,29.92,South,181,4.0,10.0,95,0.00,,,0.30,Wunderground v.1.15,2013-05-04 12:46:00,
2013-05-04 07:51:00,41.3,40.0,29.92,South,180,7.0,7.0,95,0.00,,,0.30,Wunderground v.1.15,2013-05-04 12:51:00,
2013-05-04 07:56:00,41.4,40.1,29.92,SSE,165,7.0,7.0,95,0.00,,,0.30,Wunderground v.1.15,2013-05-04 12:56:00,
2013-05-04 08:01:00,41.4,40.1,29.93,SSE,159,8.0,9.0,95,0.00,,,0.30,Wunderground v.1.15,2013-05-04 13:01:00,
2013-05-04 08:04:00,41.5,39.9,29.93,SSE,164,5.0,9.0,94,0.00,,,0.30,Wunderground v.1.15,2013-05-04 13:04:00,
2013-05-04 08:09:00,41.6,40.3,29.92,SSE,160,6.0,10.0,95,0.00,,,0.30,Wunderground v.1.15,2013-05-04 13:09:00,
2013-05-04 08:14:00,41.7,40.1,29.92,West,279,5.0,9.0,94,0.00,,,0.30,Wunderground v.1.15,2013-05-04 13:14:00,
2013-05-04 08:19:00,41.8,40.2,29.92,South,171,6.0,9.0,94,0.00,,,0.30,Wunderground v.1.15,2013-05-04 13:19:00,
2013-05-04 08:24:00,41.8,40.2,29.92,South,184,6.0,9.0,94,0.00,,,0.30,Wunderground v.1.15,2013-05-04 13:24:00,
2013-05-04 08:29:00,41.8,40.2,29.92,South,172,5.0,12.0,94,0.00,,,0.30,Wunderground v.1.15,2013-05-04 13:29:00,
2013-05-04 08:34:00,41.9,40.3,29.92,SSE,166,4.0,7.0,94,0.00,,,0.30,Wunderground v.1.15,2013-05-04 13:34:00,
2013-05-04 08:39:00,42.0,40.4,29.92,SSE,161,5.0,11.0,94,0.00,,,0.30,Wunderground v.1.15,2013-05-04 13:39:00,
2013-05-04 08:44:00,42.1,40.5,29.92,South,177,9.0,14.0,94,0.00,,,0.30,Wunderground v.1.15,2013-05-04 13:44:00,
2013-05-04 08:49:00,42.0,39.8,29.92,South,171,9.0,14.0,92,0.00,,,0.30,Wunderground v.1.15,2013-05-04 13:49:00,
2013-05-04 08:54:00,42.0,40.1,29.92,South,183,8.0,12.0,93,0.00,,,0.30,Wunderground v.1.15,2013-05-04 13:54:00,
2013-05-04 08:59:00,42.2,40.3,29.93,West,279,5.0,12.0,93,0.00,,,0.30,Wunderground v.1.15,2013-05-04 13:59:00,
2013-05-04 09:04:00,42.4,40.5,29.93,South,179,6.0,8.0,93,0.00,,,0.30,Wunderground v.1.15,2013-05-04 14:04:00,
2013-05-04 09:09:00,42.5,40.3,29.94,SSE,157,6.0,10.0,92,0.00,,,0.30,Wunderground v.1.15,2013-05-04 14:09:00,
2013-05-04 09:14:00,42.6,40.4,29.94,SSE,168,7.0,10.0,92,0.00,,,0.30,Wunderground v.1.15,2013-05-04 14:14:00,
2013-05-04 09:19:00,42.7,40.5,29.94,South,178,4.0,11.0,92,0.00,,,0.30,Wunderground v.1.15,2013-05-04 14:19:00,
2013-05-04 09:24:00,42.8,40.6,29.94,West,279,9.0,11.0,92,0.00,,,0.30,Wunderground v.1.15,2013-05-04 14:24:00,
2013-05-04 09:29:00,42.8,40.1,29.93,West,279,11.0,12.0,90,0.00,,,0.30,Wunderground v.1.15,2013-05-04 14:29:00,
2013-05-04 09:34:00,42.8,40.1,29.94,South,170,11.0,12.0,90,0.00,,,0.30,Wunderground v.1.15,2013-05-04 14:34:00,
2013-05-04 09:39:00,42.9,40.2,29.93,South,181,9.0,13.0,90,0.00,,,0.30,Wunderground v.1.15,2013-05-04 14:39:00,
2013-05-04 09:44:00,43.0,40.0,29.93,South,186,9.0,13.0,89,0.00,,,0.30,Wunderground v.1.15,2013-05-04 14:44:00,
2013-05-04 09:49:00,43.2,40.2,29.93,South,186,12.0,14.0,89,0.00,,,0.30,Wunderground v.1.15,2013-05-04 14:49:00,
2013-05-04 09:54:00,43.3,40.0,29.93,West,279,7.0,14.0,88,0.00,,,0.30,Wunderground v.1.15,2013-05-04 14:54:00,
2013-05-04 09:59:00,43.5,40.2,29.94,South,178,9.0,14.0,88,0.00,,,0.30,Wunderground v.1.15,2013-05-04 14:59:00,
2013-05-04 10:04:00,43.8,40.5,29.94,SSW,197,14.0,15.0,88,0.00,,,0.30,Wunderground v.1.15,2013-05-04 15:04:00,
2013-05-04 10:09:00,44.0,39.8,29.94,SSW,192,12.0,15.0,85,0.00,,,0.30,Wunderground v.1.15,2013-05-04 15:09:00,
2013-05-04 10:14:00,44.0,39.8,29.94,South,189,8.0,14.0,85,0.00,,,0.30,Wunderground v.1.15,2013-05-04 15:14:00,
2013-05-04 10:19:00,44.0,39.2,29.95,SSE,162,7.0,14.0,83,0.00,,,0.30,Wunderground v.1.15,2013-05-04 15:19:00,
2013-05-04 10:24:00,44.1,39.9,29.94,South,187,8.0,13.0,85,0.00,,,0.30,Wunderground v.1.15,2013-05-04 15:24:00,
2013-05-04 10:29:00,44.5,40.6,29.94,South,169,11.0,16.0,86,0.00,,,0.30,Wunderground v.1.15,2013-05-04 15:29:00,
2013-05-04 10:34:00,44.7,40.5,29.94,SSW,202,6.0,14.0,85,0.00,,,0.30,Wunderground v.1.15,2013-05-04 15:34:00,
2013-05-04 10:39:00,45.1,40.9,29.95,West,279,10.0,14.0,85,0.00,,,0.30,Wunderground v.1.15,2013-05-04 15:39:00,
2013-05-04 10:44:00,45.4,40.2,29.94,West,279,10.0,13.0,82,0.00,,,0.30,Wunderground v.1.15,2013-05-04 15:44:00,
2013-05-04 10:49:00,45.5,40.9,29.94,South,173,3.0,13.0,84,0.00,,,0.30,Wunderground v.1.15,2013-05-04 15:49:00,
2013-05-04 10:54:00,45.8,40.9,29.95,SSE,157,8.0,13.0,83,0.00,,,0.30,Wunderground v.1.15,2013-05-04 15:54:00,
2013-05-04 10:59:00,46.0,40.5,29.95,SSE,167,12.0,14.0,81,0.00,,,0.30,Wunderground v.1.15,2013-05-04 15:59:00,
2013-05-04 11:04:00,46.0,39.9,29.95,South,176,13.0,14.0,79,0.00,,,0.30,Wunderground v.1.15,2013-05-04 16:04:00,
2013-05-04 11:09:00,45.9,40.1,29.95,SSE,167,11.0,14.0,80,0.00,,,0.30,Wunderground v.1.15,2013-05-04 16:09:00,
2013-05-04 11:14:00,46.2,40.7,29.95,West,279,5.0,11.0,81,0.00,,,0.30,Wunderground v.1.15,2013-05-04 16:14:00,
2013-05-04 11:19:00,46.5,40.3,29.94,South,176,8.0,11.0,79,0.00,,,0.30,Wunderground v.1.15,2013-05-04 16:19:00,
2013-05-04 11:24:00,46.7,39.9,29.95,SSE,152,6.0,11.0,77,0.00,,,0.30,Wunderground v.1.15,2013-05-04 16:24:00,
2013-05-04 11:29:00,46.9,40.7,29.94,South,171,7.0,13.0,79,0.00,,,0.30,Wunderground v.1.15,2013-05-04 16:29:00,
2013-05-04 11:34:00,46.9,40.4,29.94,SSW,203,6.0,13.0,78,0.00,,,0.30,Wunderground v.1.15,2013-05-04 16:34:00,
2013-05-04 11:39:00,47.4,40.6,29.94,South,182,7.0,13.0,77,0.00,,,0.30,Wunderground v.1.15,2013-05-04 16:39:00,
2013-05-04 11:44:00,47.8,40.3,29.95,SE,134,12.0,13.0,75,0.00,,,0.30,Wunderground v.1.15,2013-05-04 16:44:00,
2013-05-04 11:49:00,47.9,41.0,29.95,SSE,150,5.0,13.0,77,0.00,,,0.30,Wunderground v.1.15,2013-05-04 16:49:00,
2013-05-04 11:54:00,47.8,40.6,29.95,South,174,8.0,13.0,76,0.00,,,0.30,Wunderground v.1.15,2013-05-04 16:54:00,
2013-05-04 11:59:00,47.8,40.6,29.95,SSE,150,9.0,14.0,76,0.00,,,0.30,Wunderground v.1.15,2013-05-04 16:59:00,
2013-05-04 12:04:00,47.9,39.3,29.94,West,279,6.0,14.0,72,0.00,,,0.30,Wunderground v.1.15,2013-05-04 17:04:00,
2013-05-04 12:09:00,48.1,41.9,29.94,South,171,13.0,15.0,79,0.00,,,0.30,Wunderground v.1.15,2013-05-04 17:09:00,
2013-05-04 12:14:00,48.4,40.1,29.95,South,177,11.0,17.0,73,0.00,,,0.30,Wunderground v.1.15,2013-05-04 17:14:00,
2013-05-04 12:19:00,48.0,40.1,29.95,SSE,157,10.0,17.0,74,0.00,,,0.30,Wunderground v.1.15,2013-05-04 17:19:00,
2013-05-04 12:24:00,48.2,41.3,29.95,South,180,7.0,13.0,77,0.00,,,0.30,Wunderground v.1.15,2013-05-04 17:24:00,
2013-05-04 12:29:00,48.3,40.7,29.95,West,279,9.0,13.0,75,0.00,,,0.30,Wunderground v.1.15,2013-05-04 17:29:00,
2013-05-04 12:34:00,48.3,40.7,29.95,West,279,13.0,14.0,75,0.00,,,0.30,Wunderground v.1.15,2013-05-04 17:34:00,
2013-05-04 12:39:00,48.5,40.6,29.94,SE,133,5.0,14.0,74,0.00,,,0.30,Wunderground v.1.15,2013-05-04 17:39:00,
2013-05-04 12:44:00,48.8,42.2,29.95,SSE,163,9.0,12.0,78,0.00,,,0.30,Wunderground v.1.15,2013-05-04 17:44:00,
2013-05-04 12:49:00,49.2,40.9,29.94,West,279,6.0,12.0,73,0.00,,,0.30,Wunderground v.1.15,2013-05-04 17:49:00,
2013-05-04 12:54:00,49.4,41.5,29.94,South,174,9.0,12.0,74,0.00,,,0.30,Wunderground v.1.15,2013-05-04 17:54:00,
2013-05-04 13:00:00,49.4,41.5,29.94,SSE,167,6.0,7.0,74,0.00,,,0.30,Wunderground v.1.15,2013-05-04 18:00:00,
2013-05-04 13:05:00,49.4,41.8,29.94,South,180,9.0,11.0,75,0.00,,,0.30,Wunderground v.1.15,2013-05-04 18:05:00,
2013-05-04 13:10:00,49.7,40.7,29.94,West,279,9.0,9.0,71,0.00,,,0.30,Wunderground v.1.15,2013-05-04 18:10:00,
2013-05-04 13:15:00,50.0,41.3,29.93,South,182,4.0,12.0,72,0.00,,,0.30,Wunderground v.1.15,2013-05-04 18:15:00,
2013-05-04 13:20:00,50.4,41.0,29.94,SSE,168,5.0,6.0,70,0.00,,,0.30,Wunderground v.1.15,2013-05-04 18:20:00,
2013-05-04 13:25:00,50.6,41.5,29.94,ESE,107,2.0,10.0,71,0.00,,,0.30,Wunderground v.1.15,2013-05-04 18:25:00,
2013-05-04 13:30:00,51.1,42.4,29.94,West,279,5.0,5.0,72,0.00,,,0.30,Wunderground v.1.15,2013-05-04 18:30:00,
2013-05-04 13:35:00,51.5,41.3,29.93,SSE,163,10.0,11.0,68,0.00,,,0.30,Wunderground v.1.15,2013-05-04 18:35:00,
2013-05-04 13:40:00,51.3,41.1,29.93,South,190,4.0,10.0,68,0.00,,,0.30,Wunderground v.1.15,2013-05-04 18:40:00,
2013-05-04 13:45:00,51.1,40.9,29.94,South,180,6.0,11.0,68,0.00,,,0.30,Wunderground v.1.15,2013-05-04 18:45:00,
2013-05-04 13:50:00,50.9,41.5,29.94,SSE,162,5.0,6.0,70,0.00,,,0.30,Wunderground v.1.15,2013-05-04 18:50:00,
2013-05-04 13:55:00,51.5,41.3,29.94,South,180,10.0,12.0,68,0.00,,,0.30,Wunderground v.1.15,2013-05-04 18:55:00,
2013-05-04 14:00:00,52.0,41.8,29.93,West,279,5.0,8.0,68,0.00,,,0.30,Wunderground v.1.15,2013-05-04 19:00:00,
2013-05-04 14:05:00,52.1,40.7,29.93,SSE,150,6.0,10.0,65,0.00,,,0.30,Wunderground v.1.15,2013-05-04 19:05:00,
2013-05-04 14:10:00,52.0,41.4,29.94,SE,146,4.0,6.0,67,0.00,,,0.30,Wunderground v.1.15,2013-05-04 19:10:00,
2013-05-04 14:15:00,51.9,41.3,29.94,West,279,3.0,8.0,67,0.00,,,0.30,Wunderground v.1.15,2013-05-04 19:15:00,
2013-05-04 14:20:00,51.7,40.7,29.93,SW,214,3.0,5.0,66,0.00,,,0.30,Wunderground v.1.15,2013-05-04 19:20:00,
2013-05-04 14:25:00,52.1,41.1,29.93,SSW,200,6.0,12.0,66,0.00,,,0.30,Wunderground v.1.15,2013-05-04 19:25:00,
2013-05-04 14:30:00,52.2,40.8,29.94,South,170,8.0,12.0,65,0.00,,,0.30,Wunderground v.1.15,2013-05-04 19:30:00,
2013-05-04 14:35:00,52.3,41.3,29.94,South,179,7.0,12.0,66,0.00,,,0.30,Wunderground v.1.15,2013-05-04 19:35:00,
2013-05-04 14:40:00,52.3,40.9,29.94,SSW,198,6.0,8.0,65,0.00,,,0.30,Wunderground v.1.15,2013-05-04 19:40:00,
2013-05-04 14:45:00,52.1,39.9,29.94,SSE,163,8.0,12.0,63,0.00,,,0.30,Wunderground v.1.15,2013-05-04 19:45:00,
2013-05-04 14:50:00,51.9,40.9,29.93,SE,136,6.0,9.0,66,0.00,,,0.30,Wunderground v.1.15,2013-05-04 19:50:00,
2013-05-04 14:55:00,51.9,41.3,29.94,South,178,4.0,12.0,67,0.00,,,0.30,Wunderground v.1.15,2013-05-04 19:55:00,
2013-05-04 15:00:00,52.0,39.8,29.94,SSW,200,7.0,7.0,63,0.00,,,0.30,Wunderground v.1.15,2013-05-04 20:00:00,
2013-05-04 15:05:00,52.0,41.8,29.93,SSW,194,5.0,10.0,68,0.00,,,0.30,Wunderground v.1.15,2013-05-04 20:05:00,
2013-05-04 15:10:00,52.2,40.8,29.94,West,269,1.0,4.0,65,0.00,,,0.30,Wunderground v.1.15,2013-05-04 20:10:00,
2013-05-04 15:15:00,52.3,42.0,29.93,South,190,1.0,4.0,68,0.00,,,0.30,Wunderground v.1.15,2013-05-04 20:15:00,
2013-05-04 15:20:00,52.5,41.9,29.94,SSE,168,0.0,1.0,67,0.00,,,0.30,Wunderground v.1.15,2013-05-04 20:20:00,
2013-05-04 15:25:00,52.6,41.2,29.94,SE,130,1.0,3.0,65,0.00,,,0.30,Wunderground v.1.15,2013-05-04 20:25:00,
2013-05-04 15:30:00,52.6,41.6,29.94,West,279,3.0,5.0,66,0.00,,,0.30,Wunderground v.1.15,2013-05-04 20:30:00,
2013-05-04 15:35:00,52.6,41.6,29.94,South,170,3.0,5.0,66,0.00,,,0.30,Wunderground v.1.15,2013-05-04 20:35:00,
2013-05-04 15:41:00,52.6,41.2,29.94,East,88,4.0,4.0,65,0.00,,,0.30,Wunderground v.1.15,2013-05-04 20:41:00,
2013-05-04 15:45:00,52.7,42.0,29.95,East,85,4.0,5.0,67,0.00,,,0.30,Wunderground v.1.15,2013-05-04 20:45:00,
2013-05-04 15:50:00,53.0,42.3,29.95,ENE,72,5.0,5.0,67,0.00,,,0.30,Wunderground v.1.15,2013-05-04 20:50:00,
2013-05-04 15:55:00,53.3,43.0,29.95,ENE,63,6.0,7.0,68,0.00,,,0.30,Wunderground v.1.15,2013-05-04 20:55:00,
2013-05-04 16:00:00,53.6,41.7,29.94,West,279,1.0,3.0,64,0.00,,,0.30,Wunderground v.1.15,2013-05-04 21:00:00,
2013-05-04 16:05:00,53.7,42.2,29.94,SSE,165,4.0,7.0,65,0.00,,,0.30,Wunderground v.1.15,2013-05-04 21:05:00,
2013-05-04 16:10:00,53.9,43.2,29.94,SSE,151,5.0,6.0,67,0.00,,,0.30,Wunderground v.1.15,2013-05-04 21:10:00,
2013-05-04 16:15:00,54.3,41.6,29.93,West,279,7.0,7.0,62,0.00,,,0.30,Wunderground v.1.15,2013-05-04 21:15:00,
2013-05-04 16:20:00,54.7,41.9,29.93,East,87,3.0,4.0,62,0.00,,,0.30,Wunderground v.1.15,2013-05-04 21:20:00,
2013-05-04 16:26:00,54.9,41.7,29.94,West,279,3.0,6.0,61,0.00,,,0.30,Wunderground v.1.15,2013-05-04 21:26:00,
2013-05-04 16:30:00,55.3,41.2,29.93,ENE,65,2.0,5.0,59,0.00,,,0.30,Wunderground v.1.15,2013-05-04 21:30:00,
2013-05-04 16:36:00,55.5,41.8,29.93,ENE,68,3.0,9.0,60,0.00,,,0.30,Wunderground v.1.15,2013-05-04 21:36:00,
2013-05-04 16:40:00,55.3,42.1,29.93,ENE,78,0.0,4.0,61,0.00,,,0.30,Wunderground v.1.15,2013-05-04 21:40:00,
2013-05-04 16:45:00,55.1,42.7,29.93,East,82,1.0,4.0,63,0.00,,,0.30,Wunderground v.1.15,2013-05-04 21:45:00,
2013-05-04 16:50:00,54.9,41.7,29.93,East,80,2.0,3.0,61,0.00,,,0.30,Wunderground v.1.15,2013-05-04 21:50:00,
2013-05-04 16:55:00,54.7,41.1,29.94,East,97,1.0,4.0,60,0.00,,,0.30,Wunderground v.1.15,2013-05-04 21:55:00,
2013-05-04 17:00:00,54.4,41.6,29.94,East,97,0.0,2.0,62,0.00,,,0.30,Wunderground v.1.15,2013-05-04 22:00:00,
2013-05-04 17:05:00,54.1,40.1,29.94,East,86,5.0,5.0,59,0.00,,,0.30,Wunderground v.1.15,2013-05-04 22:05:00,
2013-05-04 17:10:00,54.0,41.3,29.94,West,279,2.0,2.0,62,0.00,,,0.30,Wunderground v.1.15,2013-05-04 22:10:00,
2013-05-04 17:15:00,53.9,40.8,29.94,ENE,76,1.0,3.0,61,0.00,,,0.30,Wunderground v.1.15,2013-05-04 22:15:00,
2013-05-04 17:20:00,53.8,41.1,29.94,West,279,3.0,4.0,62,0.00,,,0.30,Wunderground v.1.15,2013-05-04 22:20:00,
2013-05-04 17:25:00,53.8,42.7,29.94,West,279,4.0,6.0,66,0.00,,,0.30,Wunderground v.1.15,2013-05-04 22:25:00,
2013-05-04 17:31:00,53.8,41.5,29.94,North,10,5.0,6.0,63,0.00,,,0.30,Wunderground v.1.15,2013-05-04 22:31:00,
2013-05-04 17:35:00,53.9,42.8,29.94,North,9,4.0,6.0,66,0.00,,,0.30,Wunderground v.1.15,2013-05-04 22:35:00,
2013-05-04 17:41:00,54.1,42.2,29.94,NNW,344,8.0,11.0,64,0.00,,,0.30,Wunderground v.1.15,2013-05-04 22:41:00,
2013-05-04 17:46:00,54.4,41.6,29.94,NNW,332,8.0,11.0,62,0.00,,,0.30,Wunderground v.1.15,2013-05-04 22:46:00,
2013-05-04 17:51:00,54.7,42.3,29.94,NNW,340,8.0,8.0,63,0.00,,,0.30,Wunderground v.1.15,2013-05-04 22:51:00,
2013-05-04 17:56:00,54.4,41.6,29.94,NNW,338,10.0,10.0,62,0.00,,,0.30,Wunderground v.1.15,2013-05-04 22:56:00,
2013-05-04 18:01:00,54.0,41.7,29.94,North,353,6.0,10.0,63,0.00,,,0.30,Wunderground v.1.15,2013-05-04 23:01:00,
2013-05-04 18:06:00,53.8,41.5,29.95,NNW,342,4.0,10.0,63,0.00,,,0.30,Wunderground v.1.15,2013-05-04 23:06:00,
2013-05-04 18:11:00,53.7,41.0,29.94,NW,307,4.0,7.0,62,0.00,,,0.30,Wunderground v.1.15,2013-05-04 23:11:00,
2013-05-04 18:16:00,53.7,41.0,29.95,North,3,5.0,10.0,62,0.00,,,0.30,Wunderground v.1.15,2013-05-04 23:16:00,
2013-05-04 18:21:00,53.6,41.3,29.95,North,355,2.0,5.0,63,0.00,,,0.30,Wunderground v.1.15,2013-05-04 23:21:00,
2013-05-04 18:26:00,53.6,41.7,29.95,NNE,14,5.0,7.0,64,0.00,,,0.30,Wunderground v.1.15,2013-05-04 23:26:00,
2013-05-04 18:31:00,53.6,41.3,29.95,North,11,6.0,8.0,63,0.00,,,0.30,Wunderground v.1.15,2013-05-04 23:31:00,
2013-05-04 18:36:00,53.5,42.4,29.95,NNE,13,6.0,10.0,66,0.00,,,0.30,Wunderground v.1.15,2013-05-04 23:36:00,
2013-05-04 18:41:00,53.3,42.2,29.94,NE,40,4.0,6.0,66,0.00,,,0.30,Wunderground v.1.15,2013-05-04 23:41:00,
2013-05-04 18:45:00,53.2,42.1,29.94,NE,38,4.0,7.0,66,0.00,,,0.30,Wunderground v.1.15,2013-05-04 23:45:00,
2013-05-04 18:50:00,53.1,42.0,29.94,NE,51,5.0,7.0,66,0.00,,,0.30,Wunderground v.1.15,2013-05-04 23:50:00,
2013-05-04 18:55:00,52.9,41.0,29.94,NE,45,5.0,7.0,64,0.00,,,0.30,Wunderground v.1.15,2013-05-04 23:55:00,
2013-05-04 19:00:00,52.8,42.5,29.95,NNE,21,5.0,6.0,68,0.00,,,0.30,Wunderground v.1.15,2013-05-05 00:00:00,
2013-05-04 19:05:00,52.5,41.1,29.95,NNE,22,7.0,7.0,65,0.00,,,0.30,Wunderground v.1.15,2013-05-05 00:05:00,
2013-05-04 19:10:00,52.2,43.4,29.95,NE,37,11.0,14.0,72,0.00,,,0.30,Wunderground v.1.15,2013-05-05 00:10:00,
2013-05-04 19:15:00,51.8,43.4,29.94,NE,36,10.0,14.0,73,0.00,,,0.30,Wunderground v.1.15,2013-05-05 00:15:00,
2013-05-04 19:20:00,51.4,43.4,29.94,NE,36,8.0,12.0,74,0.00,,,0.30,Wunderground v.1.15,2013-05-05 00:20:00,
2013-05-04 19:25:00,51.0,43.4,29.95,NNE,32,11.0,12.0,75,0.00,,,0.30,Wunderground v.1.15,2013-05-05 00:25:00,
2013-05-04 19:30:00,50.7,43.4,29.95,NE,38,10.0,11.0,76,0.00,,,0.30,Wunderground v.1.15,2013-05-05 00:30:00,
2013-05-04 19:35:00,50.3,44.0,29.95,NNE,26,10.0,12.0,79,0.00,,,0.30,Wunderground v.1.15,2013-05-05 00:35:00,
2013-05-04 19:40:00,49.9,43.3,29.95,NNE,26,8.0,10.0,78,0.00,,,0.30,Wunderground v.1.15,2013-05-05 00:40:00,
2013-05-04 19:45:00,49.5,43.3,29.96,NNE,32,8.0,10.0,79,0.00,,,0.30,Wunderground v.1.15,2013-05-05 00:45:00,
2013-05-04 19:50:00,49.1,43.2,29.95,NNE,26,7.0,9.0,80,0.00,,,0.30,Wunderground v.1.15,2013-05-05 00:50:00,
2013-05-04 19:55:00,48.5,42.9,29.95,NNE,31,9.0,10.0,81,0.00,,,0.30,Wunderground v.1.15,2013-05-05 00:55:00,
2013-05-04 20:00:00,48.1,42.9,29.96,NNE,33,9.0,9.0,82,0.00,,,0.30,Wunderground v.1.15,2013-05-05 01:00:00,
2013-05-04 20:05:00,47.7,42.8,29.96,NNE,31,7.0,10.0,83,0.00,,,0.30,Wunderground v.1.15,2013-05-05 01:05:00,
2013-05-04 20:10:00,47.3,43.0,29.95,NNE,23,7.0,7.0,85,0.00,,,0.30,Wunderground v.1.15,2013-05-05 01:10:00,
2013-05-04 20:15:00,46.9,42.6,29.96,NNE,31,7.0,10.0,85,0.00,,,0.30,Wunderground v.1.15,2013-05-05 01:15:00,
2013-05-04 20:20:00,46.5,42.5,29.96,NE,34,7.0,10.0,86,0.00,,,0.30,Wunderground v.1.15,2013-05-05 01:20:00,
2013-05-04 20:25:00,46.2,42.5,29.96,NE,35,7.0,11.0,87,0.00,,,0.30,Wunderground v.1.15,2013-05-05 01:25:00,
2013-05-04 20:30:00,45.8,42.4,29.97,West,279,10.0,10.0,88,0.00,,,0.30,Wunderground v.1.15,2013-05-05 01:30:00,
2013-05-04 20:35:00,45.6,42.0,29.97,NE,46,11.0,12.0,87,0.00,,,0.30,Wunderground v.1.15,2013-05-05 01:35:00,
2013-05-04 20:40:00,45.4,42.1,29.97,NE,40,11.0,14.0,88,0.00,,,0.30,Wunderground v.1.15,2013-05-05 01:40:00,
2013-05-04 20:45:00,45.2,41.9,29.97,NE,47,10.0,14.0,88,0.00,,,0.30,Wunderground v.1.15,2013-05-05 01:45:00,
2013-05-04 20:50:00,45.1,42.1,29.97,NE,46,9.0,11.0,89,0.00,,,0.30,Wunderground v.1.15,2013-05-05 01:50:00,
2013-05-04 20:55:00,45.1,42.1,29.97,NE,49,8.0,11.0,89,0.00,,,0.30,Wunderground v.1.15,2013-05-05 01:55:00,
2013-05-04 21:00:00,44.9,41.9,29.97,NE,45,6.0,9.0,89,0.00,,,0.30,Wunderground v.1.15,2013-05-05 02:00:00,
2013-05-04 21:05:00,44.7,41.7,29.97,NE,45,6.0,10.0,89,0.00,,,0.30,Wunderground v.1.15,2013-05-05 02:05:00,
2013-05-04 21:10:00,44.5,41.7,29.97,NE,51,6.0,7.0,90,0.00,,,0.30,Wunderground v.1.15,2013-05-05 02:10:00,
2013-05-04 21:15:00,44.3,41.6,29.97,NE,51,6.0,7.0,90,0.00,,,0.30,Wunderground v.1.15,2013-05-05 02:15:00,
2013-05-04 21:20:00,44.1,41.4,29.97,NE,51,8.0,11.0,90,0.00,,,0.30,Wunderground v.1.15,2013-05-05 02:20:00,
2013-05-04 21:25:00,43.9,41.2,29.97,NE,45,7.0,11.0,90,0.00,,,0.30,Wunderground v.1.15,2013-05-05 02:25:00,
2013-05-04 21:30:00,43.7,41.2,29.97,NE,40,9.0,10.0,91,0.00,,,0.30,Wunderground v.1.15,2013-05-05 02:30:00,
2013-05-04 21:35:00,43.5,41.0,29.97,NE,42,10.0,11.0,91,0.00,,,0.30,Wunderground v.1.15,2013-05-05 02:35:00,
2013-05-04 21:40:00,43.4,40.9,29.97,NE,36,10.0,11.0,91,0.00,,,0.30,Wunderground v.1.15,2013-05-05 02:40:00,
2013-05-04 21:45:00,43.3,41.1,29.96,NE,36,12.0,13.0,92,0.00,,,0.30,Wunderground v.1.15,2013-05-05 02:45:00,
2013-05-04 21:50:00,43.3,41.1,29.96,NE,34,11.0,12.0,92,0.00,,,0.30,Wunderground v.1.15,2013-05-05 02:50:00,
2013-05-04 21:55:00,43.4,41.2,29.96,NNE,32,11.0,13.0,92,0.00,,,0.30,Wunderground v.1.15,2013-05-05 02:55:00,
2013-05-04 22:00:00,43.6,41.7,29.96,NE,35,11.0,12.0,93,0.00,,,0.30,Wunderground v.1.15,2013-05-05 03:00:00,
2013-05-04 22:05:00,44.0,42.1,29.96,NE,40,9.0,12.0,93,0.00,,,0.30,Wunderground v.1.15,2013-05-05 03:05:00,
2013-05-04 22:10:00,44.3,42.1,29.96,NE,39,7.0,9.0,92,0.00,,,0.30,Wunderground v.1.15,2013-05-05 03:10:00,
2013-05-04 22:15:00,44.5,42.3,29.95,NE,51,9.0,10.0,92,0.00,,,0.30,Wunderground v.1.15,2013-05-05 03:15:00,
2013-05-04 22:20:00,44.5,42.3,29.95,West,279,9.0,10.0,92,0.00,,,0.30,Wunderground v.1.15,2013-05-05 03:20:00,
2013-05-04 22:25:00,44.5,42.3,29.96,West,279,6.0,10.0,92,0.00,,,0.30,Wunderground v.1.15,2013-05-05 03:25:00,
2013-05-04 22:30:00,44.4,41.9,29.96,NE,53,7.0,7.0,91,0.00,,,0.30,Wunderground v.1.15,2013-05-05 03:30:00,
2013-05-04 22:35:00,44.3,41.8,29.95,NE,55,5.0,8.0,91,0.00,,,0.30,Wunderground v.1.15,2013-05-05 03:35:00,
2013-05-04 22:40:00,44.2,41.7,29.95,NE,47,5.0,6.0,91,0.00,,,0.30,Wunderground v.1.15,2013-05-05 03:40:00,
2013-05-04 22:45:00,44.0,41.5,29.94,NE,45,3.0,6.0,91,0.00,,,0.30,Wunderground v.1.15,2013-05-05 03:45:00,
2013-05-04 22:50:00,43.8,41.3,29.94,NE,45,3.0,4.0,91,0.00,,,0.30,Wunderground v.1.15,2013-05-05 03:50:00,
2013-05-04 22:55:00,43.7,41.5,29.95,NE,48,0.0,4.0,92,0.00,,,0.30,Wunderground v.1.15,2013-05-05 03:55:00,
2013-05-04 23:00:00,43.6,41.4,29.95,NE,49,2.0,3.0,92,0.00,,,0.30,Wunderground v.1.15,2013-05-05 04:00:00,
2013-05-04 23:01:00,43.6,41.4,29.95,NE,50,3.0,3.0,92,0.00,,,0.30,Wunderground v.1.15,2013-05-05 04:01:00,
2013-05-04 23:06:00,43.6,41.7,29.95,NE,55,3.0,4.0,93,0.00,,,0.30,Wunderground v.1.15,2013-05-05 04:06:00,
2013-05-04 23:11:00,43.5,41.3,29.95,NE,55,0.0,3.0,92,0.00,,,0.30,Wunderground v.1.15,2013-05-05 04:11:00,
2013-05-04 23:16:00,43.4,41.5,29.94,NE,53,0.0,3.0,93,0.00,,,0.30,Wunderground v.1.15,2013-05-05 04:16:00,
2013-05-04 23:21:00,43.3,41.1,29.94,NE,55,3.0,3.0,92,0.00,,,0.30,Wunderground v.1.15,2013-05-05 04:21:00,
2013-05-04 23:26:00,43.3,41.1,29.94,NE,54,2.0,3.0,92,0.00,,,0.30,Wunderground v.1.15,2013-05-05 04:26:00,
2013-05-04 23:31:00,43.2,41.3,29.95,NE,54,3.0,3.0,93,0.00,,,0.30,Wunderground v.1.15,2013-05-05 04:31:00,
2013-05-04 23:36:00,42.9,40.7,29.95,NE,42,4.0,5.0,92,0.00,,,0.30,Wunderground v.1.15,2013-05-05 04:36:00,
2013-05-04 23:41:00,42.7,40.5,29.95,NNE,33,6.0,6.0,92,0.00,,,0.30,Wunderground v.1.15,2013-05-05 04:41:00,
2013-05-04 23:46:00,42.5,40.3,29.95,NNE,32,5.0,6.0,92,0.00,,,0.30,Wunderground v.1.15,2013-05-05 04:46:00,
2013-05-04 23:51:00,42.3,40.4,29.95,NNE,26,5.0,6.0,93,0.00,,,0.30,Wunderground v.1.15,2013-05-05 04:51:00,
2013-05-04 23:56:00,42.2,40.3,29.95,NNE,28,6.0,6.0,93,0.00,,,0.30,Wunderground v.1.15,2013-05-05 04:56:00,